Regional Weather Roundup
Issued by NWS Goodland, KS

Home | Current Version | Previous Version | Graphics & Text | Print | Product List | Glossary On
Versions: 1 2 3 4 5 6 7 8 9 10 11 12 13 14 15 16 17 18 19 20 21 22 23 24 25 26 27 28 29 30 31 32 33 34 35 36 37 38 39 40 41 42 43 44 45 46 47 48 49 50
000
ASUS43 KGLD 190408
RWRGLD

GOODLAND FORECAST AREA HOURLY WEATHER ROUNDUP
NATIONAL WEATHER SERVICE GOODLAND KS
1000 PM MDT WED APR 18 2018

...OFFICIAL OBSERVATIONS...

CITY           SKY/WX    TMP DP  RH WIND       PRES   REMARKS
GOODLAND KS    PTCLDY    37  19  48 NW5       30.27R
HILL CITY KS   CLEAR     37  29  72 NE6       30.29R
IMPERIAL NEB   CLEAR     35  27  72 NE6       30.28R
MCCOOK NEB     CLEAR     39  30  70 E5        30.29R
AKRON CO       CLEAR     41  19  41 E5        30.28R
BURLINGTON CO  PTCLDY    33  18  53 CALM      30.29R
LIMON CO       PTCLDY    35  16  45 NE3       30.29R
$$

...UNOFFICIAL OBSERVATIONS...

CITY           SKY/WX    TMP DP  RH WIND       PRES   REMARKS
COLBY KS       CLEAR     37  28  70 E6        30.30R
NORTON KS      CLEAR     36  28  75 CALM      30.27
SHARON SPRINGS   N/A     37  17  45 CALM        N/A
KIT CARSON CO    N/A     36  17  47 MISG        N/A
YUMA CO        FAIR      36  19  51 CALM      30.28R
$$




USA.gov is the U.S. government's official web portal to all federal, state and local government web resources and services.